Tracking 17559 objects as of 14-February-2016
HD Live streaming from Space Station
objects crossing your sky now

W75/ABS-1B (HOT BIRD 3)

Track W75/ABS-1B (HOT BIRD 3) now!
W75/ABS-1B (HOT BIRD 3) is classified as:


NORAD ID: 24931
Int'l Code: 1997-049A
Perigee: 35,085.8 km
Apogee: 35,287.1 km
Inclination: 5.5 °
Period: 1,405.2 minutes
Semi major axis: 41557 km
RCS: 15.8489 m2 (large)
Launch date: September 2, 1997
Source: European Telecommunications Satellite Organization (EUTE)
Launch site: FRENCH GUIANA (FRGUI)

Cable programming; direct-to-home broadcasting; Europe, North Africa, 20 active channels
Your satellite tracking list
Your tracking list is empty





NASA's NSSDC Master Catalog

Two Line Element Set (TLE):
1 24931U 97049A   16043.88551762 +.00000002 +00000-0 +00000-0 0  9996
2 24931 005.4906 057.4311 0024217 301.7872 264.9776 01.0247769867985
Source of the keplerian elements: AFSPC

N2YO: 352